KB6LA Weather Reports


Display with metric or nautical units.
time (UTC)temp
F
wind
direction
speed
MPH
gust
MPH
rain 1hr
in
rain 24hr
in
rain mn
in
humidity
%
barometer
mb
20260901190044 74 252 7.0 10.0 0.00 0.00 0.00 69 1014.8
20260901185031 74 224 4.0 11.0 0.00 0.00 0.00 69 1014.8
20260901184524 74 192 6.0 11.0 0.00 0.00 0.00 69 1014.8
20260901184017 74 171 4.0 9.0 0.00 0.00 0.00 69 1014.8
20260901183511 73 256 5.0 10.0 0.00 0.00 0.00 69 1014.8
20260901183005 74 230 8.0 10.0 0.00 0.00 0.00 69 1014.8
20260901182459 74 249 5.0 10.0 0.00 0.00 0.00 68 1014.8
20260901181951 73 227 2.0 10.0 0.00 0.00 0.00 70 1014.8
20260901181445 73 199 4.0 8.0 0.00 0.00 0.00 70 1014.8
20260901180432 73 229 2.0 10.0 0.00 0.00 0.00 72 1014.8
20260901175926 72 253 5.0 10.0 0.00 0.00 0.00 71 1014.8
20260901175419 73 235 3.0 8.0 0.00 0.00 0.00 71 1014.8
20260901174913 73 178 7.0 8.0 0.00 0.00 0.00 70 1014.8
20260901174406 73 162 2.0 8.0 0.00 0.00 0.00 72 1014.8
20260901173859 73 220 6.0 8.0 0.00 0.00 0.00 70 1014.8
20260901173353 72 270 3.0 8.0 0.00 0.00 0.00 72 1014.8
20260901172847 72 214 1.0 8.0 0.00 0.00 0.00 74 1014.8
20260901172340 71 241 2.0 9.0 0.00 0.00 0.00 73 1014.8
20260901171834 73 218 7.0 9.0 0.00 0.00 0.00 71 1014.8
20260901165808 73 111 2.0 6.0 0.00 0.00 0.00 68 1014.5
20260901165301 73 133 2.0 4.0 0.00 0.00 0.00 69 1014.8
20260901164754 72 153 1.0 6.0 0.00 0.00 0.00 71 1014.8
20260901164248 71 62 4.0 6.0 0.00 0.00 0.00 72 1014.5
20260901162223 70 183 3.0 6.0 0.00 0.00 0.00 75 1014.5
20260901161715 69 208 2.0 6.0 0.00 0.00 0.00 76 1014.5
20260901161209 69 190 3.0 6.0 0.00 0.00 0.00 77 1014.8
20260901160704 69 290 0.0 3.0 0.00 0.00 0.00 77 1014.8
20260901160156 69 297 1.0 3.0 0.00 0.00 0.00 79 1014.5
20260901155650 68 264 2.0 3.0 0.00 0.00 0.00 79 1014.8
20260901155144 69 283 2.0 4.0 0.00 0.00 0.00 80 1014.8
20260901154637 68 279 0.0 4.0 0.00 0.00 0.00 81 1014.5
20260901153624 67 276 2.0 3.0 0.00 0.00 0.00 81 1014.8
20260901153117 67 269 2.0 3.0 0.00 0.00 0.00 81 1014.5
20260901152104 67 300 1.0 3.0 0.00 0.00 0.00 81 1014.5
20260901151558 67 264 0.0 1.0 0.00 0.00 0.00 81 1014.1
20260901151052 67 319 0.0 1.0 0.00 0.00 0.00 82 1014.5
20260901150038 67 319 0.0 1.0 0.00 0.00 0.00 83 1014.1
20260901145532 66 319 0.0 2.0 0.00 0.00 0.00 84 1014.1
20260901145025 65 296 1.0 2.0 0.00 0.00 0.00 84 1014.1
20260901144518 65 310 1.0 2.0 0.00 0.00 0.00 85 1014.1
20260901144012 64 312 2.0 2.0 0.00 0.00 0.00 85 1013.8
20260901143506 64 322 1.0 2.0 0.00 0.00 0.00 86 1013.8
20260901142959 64 325 1.0 2.0 0.00 0.00 0.00 86 1013.8
20260901142453 64 328 1.0 2.0 0.00 0.00 0.00 86 1013.8
20260901141946 64 341 1.0 2.0 0.00 0.00 0.00 87 1013.4
20260901141439 63 332 0.0 2.0 0.00 0.00 0.00 87 1013.4
20260901140933 63 336 0.0 2.0 0.00 0.00 0.00 88 1013.4
20260901135920 62 355 2.0 3.0 0.00 0.00 0.00 89 1013.4
20260901135414 62 15 2.0 3.0 0.00 0.00 0.00 90 1013.4
20260901134907 61 351 1.0 2.0 0.00 0.00 0.00 90 1013.4
20260901134401 61 345 2.0 2.0 0.00 0.00 0.00 90 1013.4
20260901133854 61 323 0.0 2.0 0.00 0.00 0.00 90 1013.4
20260901133347 61 333 1.0 2.0 0.00 0.00 0.00 90 1013.4
20260901132841 61 312 1.0 3.0 0.00 0.00 0.00 90 1013.4
20260901132335 61 331 2.0 3.0 0.00 0.00 0.00 90 1013.4
20260901131828 61 342 1.0 3.0 0.00 0.00 0.00 90 1013.4
20260901131322 61 328 2.0 3.0 0.00 0.00 0.00 90 1013.4
20260901130815 61 334 1.0 3.0 0.00 0.00 0.00 90 1013.1
20260901130308 61 323 1.0 3.0 0.00 0.00 0.00 90 1013.1
20260901125802 61 326 2.0 3.0 0.00 0.00 0.00 90 1013.1
20260901124750 61 315 1.0 1.0 0.00 0.00 0.00 90 1013.1
20260901124242 61 307 0.0 1.0 0.00 0.00 0.00 90 1013.1
20260901123230 61 328 1.0 2.0 0.00 0.00 0.00 90 1013.1
20260901122723 61 321 0.0 2.0 0.00 0.00 0.00 90 1013.1
20260901122217 61 317 0.0 2.0 0.00 0.00 0.00 90 1013.1
20260901121710 61 328 1.0 2.0 0.00 0.00 0.00 90 1013.4
20260901121203 61 340 1.0 3.0 0.00 0.00 0.00 90 1013.1
20260901120657 61 342 2.0 3.0 0.00 0.00 0.00 90 1013.1
20260901120151 61 328 1.0 3.0 0.00 0.00 0.00 89 1013.1
20260901115647 61 332 2.0 2.0 0.00 0.00 0.00 89 1013.1
20260901115138 61 345 2.0 3.0 0.00 0.00 0.00 89 1013.1
20260901114632 61 323 1.0 3.0 0.00 0.00 0.00 89 1013.1
20260901114125 61 328 2.0 3.0 0.00 0.00 0.00 89 1013.1
20260901113618 61 328 2.0 3.0 0.00 0.00 0.00 89 1013.1
20260901113112 61 333 0.0 1.0 0.00 0.00 0.00 89 1013.1
20260901112607 61 333 1.0 1.0 0.00 0.00 0.00 89 1013.1
20260901112059 61 331 1.0 2.0 0.00 0.00 0.00 89 1013.1
20260901111553 62 332 0.0 2.0 0.00 0.00 0.00 89 1013.1
20260901111046 62 332 0.0 1.0 0.00 0.00 0.00 89 1013.1
20260901110033 62 329 1.0 2.0 0.00 0.00 0.00 89 1013.1
20260901105021 62 341 1.0 2.0 0.00 0.00 0.00 89 1013.1
20260901104513 62 339 1.0 2.0 0.00 0.00 0.00 89 1013.1
20260901104007 62 334 1.0 2.0 0.00 0.00 0.00 89 1013.1
20260901102954 62 327 1.0 1.0 0.00 0.00 0.00 89 1013.1
20260901102447 62 317 0.0 1.0 0.00 0.00 0.00 89 1013.1
20260901101941 62 307 0.0 1.0 0.00 0.00 0.00 89 1013.1
20260901100928 62 324 0.0 2.0 0.00 0.00 0.00 89 1013.1
20260901100421 62 329 1.0 3.0 0.00 0.00 0.00 89 1013.1
20260901095409 62 343 2.0 4.0 0.00 0.00 0.00 88 1013.4
20260901094903 62 332 2.0 3.0 0.00 0.00 0.00 88 1013.4
20260901094355 62 321 2.0 3.0 0.00 0.00 0.00 88 1013.4
20260901093849 62 316 2.0 3.0 0.00 0.00 0.00 88 1013.4
20260901093343 62 317 2.0 3.0 0.00 0.00 0.00 88 1013.4
20260901092836 63 344 2.0 3.0 0.00 0.00 0.00 88 1013.1
20260901091823 62 306 0.0 2.0 0.00 0.00 0.00 88 1013.1
20260901091316 62 337 0.0 2.0 0.00 0.00 0.00 88 1013.4
20260901090810 62 318 0.0 2.0 0.00 0.00 0.00 87 1013.4
20260901090304 63 324 0.0 1.0 0.00 0.00 0.00 87 1013.4
20260901085758 63 310 0.0 1.0 0.00 0.00 0.00 87 1013.4
20260901085250 63 319 1.0 1.0 0.00 0.00 0.00 88 1013.4
20260901084744 63 320 1.0 1.0 0.00 0.00 0.00 87 1013.4
20260901084238 63 306 0.0 2.0 0.00 0.00 0.00 87 1013.4
20260901082718 63 327 1.0 3.0 0.00 0.00 0.00 87 1013.4
20260901082211 63 328 2.0 3.0 0.00 0.00 0.00 87 1013.4
20260901081705 63 306 1.0 3.0 0.00 0.00 0.00 87 1013.4
20260901081159 63 318 2.0 2.0 0.00 0.00 0.00 86 1013.4
20260901080652 63 332 1.0 3.0 0.00 0.00 0.00 87 1013.4
20260901080145 63 312 1.0 3.0 0.00 0.00 0.00 86 1013.4
20260901075639 63 320 1.0 2.0 0.00 0.00 0.00 86 1013.4
20260901075133 64 328 1.0 2.0 0.00 0.00 0.00 86 1013.4
20260901074120 64 319 1.0 2.0 0.00 0.00 0.00 86 1013.4
20260901073614 64 322 0.0 2.0 0.00 0.00 0.00 86 1013.4
20260901073107 64 343 0.0 2.0 0.00 0.00 0.00 86 1013.4
20260901072601 64 327 1.0 2.0 0.00 0.00 0.00 86 1013.4
20260901072054 64 322 1.0 2.0 0.00 0.00 0.00 86 1013.4
20260901071547 64 323 0.0 1.0 0.00 0.00 0.00 86 1013.4
20260901071041 64 322 1.0 2.0 0.00 0.00 0.00 86 1013.4
20260901070535 64 323 0.0 2.0 0.00 0.00 0.00 85 1013.4
20260901070029 64 322 1.0 1.0 0.00 0.00 0.00 85 1013.4
20260901065521 64 325 0.0 2.0 0.00 0.00 0.00 85 1013.1
20260901065015 64 319 1.0 2.0 0.00 0.00 0.00 85 1013.1
20260901064510 64 319 0.0 1.0 0.00 0.00 0.00 85 1013.1
20260901064002 64 315 1.0 1.0 0.00 0.00 0.00 85 1013.1
20260901063456 64 314 0.0 1.0 0.00 0.00 0.00 85 1013.1
20260901062949 64 317 1.0 2.0 0.00 0.00 0.00 85 1012.8
20260901061936 64 321 1.0 2.0 0.00 0.00 0.00 84 1012.8
20260901061430 65 306 0.0 3.0 0.00 0.00 0.00 84 1012.8
20260901060416 65 316 2.0 2.0 0.00 0.00 0.00 84 1012.8
20260901055910 65 319 1.0 2.0 0.00 0.00 0.00 84 1012.8
20260901055404 65 319 0.0 1.0 0.00 0.00 0.00 84 1012.8
20260901054857 65 318 0.0 1.0 0.00 0.00 0.00 84 1012.8
20260901054355 65 318 0.0 2.0 0.00 0.00 0.00 84 1012.8
20260901052831 65 322 1.0 2.0 0.00 0.00 0.00 84 1012.8
20260901052325 65 317 1.0 2.0 0.00 0.00 0.00 83 1012.8
20260901051818 65 316 1.0 2.0 0.00 0.00 0.00 83 1012.8
20260901051312 65 314 1.0 2.0 0.00 0.00 0.00 83 1012.8
20260901050259 66 333 2.0 2.0 0.00 0.00 0.00 83 1012.8
20260901045246 66 322 1.0 2.0 0.00 0.00 0.00 83 1012.8
20260901044233 67 292 1.0 2.0 0.00 0.00 0.00 84 1012.4
20260901043727 67 274 1.0 2.0 0.00 0.00 0.00 84 1012.8
20260901043219 67 255 1.0 2.0 0.00 0.00 0.00 84 1012.4
20260901042713 67 240 1.0 2.0 0.00 0.00 0.00 84 1012.4
20260901041700 67 243 1.0 1.0 0.00 0.00 0.00 84 1012.4
20260901041154 67 243 1.0 1.0 0.00 0.00 0.00 85 1012.1
20260901040140 67 244 0.0 2.0 0.00 0.00 0.00 84 1011.8
20260901035634 67 246 1.0 2.0 0.00 0.00 0.00 84 1012.1
20260901034622 67 256 1.0 2.0 0.00 0.00 0.00 84 1011.8
20260901033608 67 287 0.0 1.0 0.00 0.00 0.00 84 1011.8
20260901033102 67 246 0.0 2.0 0.00 0.00 0.00 84 1011.8
20260901032555 67 253 0.0 3.0 0.00 0.00 0.00 84 1011.8
20260901032049 67 251 2.0 3.0 0.00 0.00 0.00 84 1011.4
20260901031542 67 246 1.0 3.0 0.00 0.00 0.00 83 1011.4
20260901031035 67 254 0.0 2.0 0.00 0.00 0.00 83 1011.4
20260901030529 68 257 1.0 4.0 0.00 0.00 0.00 83 1011.4
20260901025010 68 228 4.0 8.0 0.00 0.00 0.00 83 1011.4
20260901024504 68 233 3.0 8.0 0.00 0.00 0.00 83 1011.4
20260901023957 68 260 3.0 8.0 0.00 0.00 0.00 83 1011.1
20260901022437 68 236 4.0 8.0 0.00 0.00 0.00 82 1011.4
20260901021931 68 220 2.0 11.0 0.00 0.00 0.00 82 1011.4
20260901021424 69 233 6.0 11.0 0.00 0.00 0.00 82 1011.4
20260901020412 69 221 6.0 9.0 0.00 0.00 0.00 80 1011.4
20260901015905 69 244 5.0 10.0 0.00 0.00 0.00 80 1011.4
20260901015358 70 346 4.0 10.0 0.00 0.00 0.00 80 1011.4
20260901014851 70 234 7.0 11.0 0.00 0.00 0.00 79 1011.4
20260901014345 71 242 9.0 11.0 0.00 0.00 0.00 78 1011.4
20260901013839 71 259 7.0 10.0 0.00 0.00 0.00 79 1011.4
20260901013331 71 256 5.0 10.0 0.00 0.00 0.00 78 1011.4
20260901012825 71 265 9.0 13.0 0.00 0.00 0.00 77 1011.4
20260901012319 71 230 11.0 13.0 0.00 0.00 0.00 76 1011.4
20260901011812 71 229 5.0 11.0 0.00 0.00 0.00 77 1011.4
20260901011306 71 252 4.0 11.0 0.00 0.00 0.00 77 1011.4
20260901010800 71 258 7.0 11.0 0.00 0.00 0.00 76 1011.4
20260901005746 72 212 6.0 11.0 0.00 0.00 0.00 76 1011.4
20260901005240 72 317 6.0 11.0 0.00 0.00 0.00 78 1011.8
20260901004733 72 234 6.0 11.0 0.00 0.00 0.00 76 1011.4
20260901004227 73 253 7.0 11.0 0.00 0.00 0.00 76 1011.4
20260901003720 73 262 4.0 11.0 0.00 0.00 0.00 76 1011.4
20260901003213 73 226 5.0 11.0 0.00 0.00 0.00 76 1011.4
20260901002707 73 233 9.0 14.0 0.00 0.00 0.00 76 1011.4
20260901001147 73 238 9.0 14.0 0.00 0.00 0.00 75 1011.8
20260901000641 73 251 11.0 13.0 0.00 0.00 0.00 75 1011.8
20260901000134 73 258 7.0 13.0 0.00 0.00 0.00 75 1011.8
20260831235122 73 235 5.0 13.0 0.00 0.00 0.00 76 1011.8
20260831234614 73 128 7.0 13.0 0.00 0.00 0.00 75 1011.8
20260831233602 74 224 7.0 14.0 0.00 0.00 0.00 73 1011.8
20260831233055 75 240 6.0 14.0 0.00 0.00 0.00 71 1011.8
20260831232549 75 231 11.0 14.0 0.00 0.00 0.00 68 1011.4
20260831232043 75 274 7.0 13.0 0.00 0.00 0.00 69 1011.4
20260831231029 74 259 9.0 14.0 0.00 0.00 0.00 71 1011.4
20260831230524 75 233 11.0 14.0 0.00 0.00 0.00 71 1011.4
20260831230016 74 255 9.0 14.0 0.00 0.00 0.00 71 1011.8
20260831225510 75 204 8.0 14.0 0.00 0.00 0.00 70 1011.8
20260831225003 75 251 11.0 14.0 0.00 0.00 0.00 69 1011.8
20260831224457 75 221 11.0 14.0 0.00 0.00 0.00 68 1011.8
20260831222937 76 247 10.0 13.0 0.00 0.00 0.00 62 1011.8
20260831222431 75 221 10.0 11.0 0.00 0.00 0.00 65 1011.8
20260831221924 76 230 7.0 15.0 0.00 0.00 0.00 68 1012.1
20260831221418 75 258 7.0 15.0 0.00 0.00 0.00 70 1012.1
20260831220911 75 250 8.0 15.0 0.00 0.00 0.00 71 1012.1
20260831220405 76 230 12.0 14.0 0.00 0.00 0.00 69 1012.1
20260831215858 76 243 6.0 14.0 0.00 0.00 0.00 69 1012.1
20260831215352 76 258 10.0 14.0 0.00 0.00 0.00 67 1012.1
20260831214844 76 212 9.0 13.0 0.00 0.00 0.00 67 1012.1
20260831214338 76 236 8.0 14.0 0.00 0.00 0.00 69 1012.1
20260831213832 76 234 4.0 14.0 0.00 0.00 0.00 67 1012.1
20260831213325 76 192 8.0 14.0 0.00 0.00 0.00 70 1012.4
20260831212819 76 283 2.0 13.0 0.00 0.00 0.00 72 1012.4
20260831212313 77 227 7.0 11.0 0.00 0.00 0.00 70 1012.4
20260831211805 76 245 4.0 13.0 0.00 0.00 0.00 70 1012.4
20260831211259 77 236 8.0 13.0 0.00 0.00 0.00 71 1012.4
20260831210753 76 257 7.0 13.0 0.00 0.00 0.00 70 1012.4
20260831210246 76 234 8.0 13.0 0.00 0.00 0.00 72 1012.4
20260831205233 76 224 9.0 14.0 0.00 0.00 0.00 72 1012.4
20260831204727 76 210 6.0 14.0 0.00 0.00 0.00 72 1012.4
20260831204219 75 195 10.0 14.0 0.00 0.00 0.00 72 1012.4
20260831203713 75 269 10.0 15.0 0.00 0.00 0.00 72 1012.4
20260831203207 76 225 11.0 15.0 0.00 0.00 0.00 72 1012.4
20260831201140 76 212 7.0 14.0 0.00 0.00 0.00 71 1012.4
20260831200634 76 242 6.0 14.0 0.00 0.00 0.00 71 1012.4
20260831195114 76 261 7.0 13.0 0.00 0.00 0.00 71 1012.8
20260831194608 76 248 5.0 13.0 0.00 0.00 0.00 71 1012.8
20260831194102 76 322 6.0 13.0 0.00 0.00 0.00 72 1012.8
20260831193554 77 250 3.0 10.0 0.00 0.00 0.00 70 1012.8
20260831192542 76 249 9.0 11.0 0.00 0.00 0.00 71 1012.8
20260831192035 76 292 7.0 11.0 0.00 0.00 0.00 72 1012.8
20260831191529 76 234 8.0 10.0 0.00 0.00 0.00 73 1013.1